Regional Weather Roundup
Issued by NWS San Diego, CA

Home | Current Version | Previous Version | Text Only | Print | Product List | Glossary On
Versions: 1 2 3 4 5 6 7 8 9 10 11 12 13 14 15 16 17 18 19 20 21 22 23 24 25 26 27
000
ASUS46 KSGX 310611
RWRSGX

SAN DIEGO HOURLY WEATHER ROUNDUP
NATIONAL WEATHER SERVICE SAN DIEGO CA
1100 PM PDT SAT JUL 30 2016

NOTE: "FAIR" INDICATES FEW OR NO CLOUDS BELOW 12,000 FEET WITH NO
SIGNIFICANT WEATHER AND/OR OBSTRUCTIONS TO VISIBILITY.

CAZ042-043-060-061-PZZ750-775-310700-

GREATER SAN DIEGO AREA

CITY           SKY/WX    TMP DP  RH WIND       PRES   REMARKS
LINDBERGH FLD  PTCLDY    69  64  84 SW5       29.91R
POINT LOMA       N/A     69  64  83 S2          N/A
NATIONAL CITY    N/A     72  67  85 CALM      29.91S
CHULA VISTA      N/A     70  67  88 W3        29.82S
IMPERIAL BEACH PTCLDY    73  65  75 SW5       29.90S
BROWN FIELD    CLEAR     70  64  81 W3        29.91R
MIRAMAR MCAS   PTCLDY    71  63  75 SW3       29.90S
MONTGOMERY FLD CLEAR     71  63  75 SW5       29.91R

$$

NORTH SAN DIEGO COUNTY

CITY           SKY/WX    TMP DP  RH WIND       PRES   REMARKS
CAMP PENDLETON CLOUDY    71  66  84 CALM      29.89S
OCEANSIDE AP   CLOUDY    72  64  76 S3        29.88R
OCEANSIDE HBR    N/A     71  67  86 CALM      29.92R
VISTA            N/A     70  65  83 CALM      29.87R
CARLSBAD       MOCLDY    70  66  87 SW3       29.89R
DEL MAR          N/A     70  67  90 CALM      29.92R
LA JOLLA SCRIP   N/A     70  67  91 S2        29.89R
FALLBROOK        N/A     70  68  93 CALM      29.87R
ESCONDIDO        N/A     73  66  79 SW3       29.91R
SAN MARCOS       N/A     70  61  73 CALM      29.92R
POWAY            N/A     71  65  79 CALM      29.89R

$$

EAST SAN DIEGO COUNTY

CITY           SKY/WX    TMP DP  RH WIND       PRES   REMARKS
RAMONA         CLEAR     70  62  76 CALM      29.93R
SANTEE LAKES     N/A     71  65  80 CALM      29.88R
LA MESA          N/A     69  64  85 CALM      29.82S
JAMUL            N/A     69  64  84 CALM      29.88S
DESCANSO N       N/A     70  58  66 CALM      29.77R
MT. LAGUNA OBS   N/A     66  58  77 CALM      29.75S
CAMPO            N/A     73  58  59 S3        29.95S

$$

ORANGE COUNTY AND THE LOS ANGELES BASIN

CITY           SKY/WX    TMP DP  RH WIND       PRES   REMARKS
JOHN WAYNE AP  PTCLDY    71  65  81 S7        29.88R
LAGUNA BEACH     N/A    N/A N/A N/A CALM      29.84R
LAKE FOREST FR   N/A     69  62  77 CALM      29.76R
HUNTINGTON BCH   N/A     70  67  89 CALM      29.90R
LOS ALAMITOS   FAIR      70  66  87 S3        29.88R
FULLERTON      CLEAR     74  64  71 S6        29.87R
LONG BEACH     PTCLDY    72  66  81 SE5       29.88R
L.A. AP        PTCLDY    70  65  84 SW6       29.88R
L.A. DOWNTOWN  CLEAR     72  65  78 CALM      29.87R

$$

THE INLAND EMPIRE

CITY           SKY/WX    TMP DP  RH WIND       PRES   REMARKS
CORONA         CLEAR     73  65  75 W7        29.89R
CHINO          CLEAR     74  64  71 W3        29.90R
ONTARIO        PTCLDY    76  62  62 W5        29.90R
SAN BERNARDINO FAIR      80  62  54 W6        29.91R
RIVERSIDE AP   CLEAR     77  63  61 NW5       29.89R
MORENO VALLEY    N/A     79  66  64 CALM      28.04R
HORSETHIEF CYN   N/A     76  61  59 CALM      29.88R
PERRIS           N/A     79  60  52 S3        29.93R
HEMET EAST       N/A     76  59  55 CALM      29.76R
FRENCH VALLEY  FAIR      75  63  64 S5        29.93R
TEMECULA         N/A     74  66  75 SE2       29.87R

$$

SAN BERNARDINO AND RIVERSIDE COUNTY MOUNTAINS

CITY           SKY/WX    TMP DP  RH WIND       PRES   REMARKS
BIG BEAR AP    CLEAR     59  55  88 CALM      30.25S
PINE COVE        N/A     67  56  68 CALM      29.79R

$$

SOUTHERN DESERT INCLUDING THE COACHELLA VALLEY

CITY           SKY/WX    TMP DP  RH WIND       PRES   REMARKS
PALM SPRINGS   CLEAR     93  63  36 NW12      29.80R
THOUSAND PALMS   N/A     92  63  37 W8        29.77R
PALM DESERT      N/A     93  70  47 CALM        N/A  HX  98
THERMAL        CLEAR     90  73  57 E8        29.74R HX  98
BLYTHE         CLEAR     87  73  62 S15       29.77F
IMPERIAL AP    CLEAR     90  75  61 SE13      29.74R HX 100
EL CENTRO NAS  CLEAR     88  73  61 SE12      29.75S HX  95
YUMA AZ        CLEAR     86  71  60 S8        29.79
MEXICALI       CLEAR     84  72  65 SE12      29.77R

$$

UPPER DESERT

CITY           SKY/WX    TMP DP  RH WIND       PRES   REMARKS
VICTORVILLE AP CLEAR     82  57  42 S10       29.93S
HESPERIA         N/A     79  61  53 W6        29.85R
PALMDALE       CLEAR     84  57  39 SW15      29.91S
LANCASTER      CLEAR     81  59  47 SW17      29.90S
EDWARDS AFB    CLEAR     83  55  38 SW22      29.86S
DAGGETT        PTCLDY    93  55  27 SW22      29.82R
29 PALMS N     PTCLDY    88  60  38 SW20      29.92R
NEEDLES        PTCLDY    96  64  34 S14       29.77S HX  98

$$

REGIONAL REPORTS

CITY           SKY/WX    TMP DP  RH WIND       PRES   REMARKS
SANTA BARBARA  MOCLDY    64  63  96 CALM      29.87R
SANDBERG       CLEAR     72  57  59 S12       30.09S
LAS VEGAS NV   PTCLDY    97  54  23 S3        29.75S HX  95
PHOENIX AZ     PTCLDY    93  66  40 W10       29.82R HX  96
TIJUANA        CLEAR     70  61  73 NW5       29.93S
ENSENADA NW      N/A     70  32  24 W1        29.88S

$$

OFFSHORE ISLANDS

CITY           SKY/WX    TMP DP  RH WIND       PRES   REMARKS
CATALINA ARPT  FOG       61  61 100 S5        29.93S VSB 1/4
SAN NICOLAS IS CLEAR     67  32  27 SW9       29.88R

$$

MARINE AND OFFSHORE BUOY REPORTS

STATION/POSITION SKY/WX   TEMP    WIND        PRES    SWELL
                          AIR SEA DIR/SP/G            HT/PER/DIR
                          (F)     (DEG/KT/KT) (MB)    (FT/S/D)
TANNER BANKS               61 65  280/  6/  8 1012.0F   5/310/11
S CLEMENTE BASIN           67 70  250/  4/  6 1012.0R   3/210/14
SO. S. ROSA ISLA           62 67  310/  8/ 10 1011.8R   5/300/11
W. S. BARBARA CH           59 65  300/ 12/ 14 1011.4R   3/310/10
M. S. BARBARA CH                  250/  4/  4 1012.1R
S. MONICA BASIN            68 71  180/  6/  6 1011.4R
TORREY PINES OTR                                N/A     2/210/18
LA JOLLA 1                 71 75  190/  6/  7 1012.1R
SAN DIEGO BAY                 78              1012.6R
POINT LOMA SOUTH              75                N/A     2/210/15

$$





USA.gov is the U.S. government's official web portal to all federal, state and local government web resources and services.